Location: 相模原市立博物館
(35.5593°N, 139.3931°E)
Time: 12:59:27
(UTC+09:00)

Envisat - Pass Details

Date: 23 October 2021
Orbit: 764 x 766 km, 98.2° (Epoch: 30 November)

Event Time Altitude Azimuth Distance (km) Brightness Sun altitude
Rises 03:57:02 0° 25° (NNE) 3,236 6.6 -24.8°
Reaches altitude 10° 03:59:40 10° 38° (NE) 2,305 6.0 -24.2°
Maximum altitude 04:03:59 28° 96° (E) 1,413 5.1 -23.4°
Drops below altitude 10° 04:08:16 10° 154° (SSE) 2,291 5.7 -22.5°
Sets 04:10:52 0° 166° (SSE) 3,212 6.4 -22.0°
